Location: Newark
(30.8300°N, 83.2700°W)
Time: 12:37:25
(UTC+00:00)

ISS - Visible Passes

Search period start: 17 September 2019 00:00
Search period end: 27 September 2019 00:00
Orbit: 411 x 421 km, 51.6° (Epoch: 17 September)

Date Brightness Start Highest point End Pass type
(mag) Time Alt. Az. Time Alt. Az. Time Alt. Az.
17 Sep -1.3 01:33:22 10° SW 01:34:22 18° WSW 01:34:22 18° WSW visible
17 Sep -2.8 09:47:24 36° SSE 09:47:24 36° SSE 09:49:35 10° SSE visible
18 Sep -3.8 00:44:58 10° SSW 00:48:14 60° SE 00:49:14 38° ENE visible
18 Sep -2.8 23:57:00 10° S 23:59:53 28° SE 00:02:47 10° ENE visible
19 Sep -1.3 01:34:06 10° W 01:36:37 20° NW 01:36:48 20° NNW visible
20 Sep -2.2 00:45:00 10° WSW 00:48:03 34° NW 00:51:06 10° NNE visible
20 Sep -3.5 23:56:17 10° SW 23:59:34 70° NW 00:02:52 10° NE visible
22 Sep -0.8 00:46:26 10° WNW 00:48:05 13° NW 00:49:44 10° N visible
22 Sep -1.3 23:56:48 10° W 23:59:25 21° NW 00:02:03 10° NNE visible
